Weather History for Monroe, MI

Change the Weather History Date:

Monday, May 5, 2014

  Actual Average Record
Temperature  
Mean Temperature 45 °F -  
Max Temperature 51 °F 65 °F 91 °F (1952)
Min Temperature 37 °F 45 °F 30 °F (1931)
Degree Days  
Heating Degree Days 20    
Moisture  
Dew Point 37 °F    
Average Humidity 72    
Maximum Humidity 93    
Minimum Humidity 54    
Precipitation  
Precipitation 0.00 in - - ()
Sea Level Pressure  
Sea Level Pressure 30.02 in    
Wind  
Wind Speed 3 mph (East)    
Max Wind Speed 13 mph    
Max Gust Speed -    
Visibility 10 miles    
Events      
Averages and records for this station are not official NWS values.
T = Trace of Precipitation, MM = Missing Value Source: NWS Daily Summary

Daily Weather History Graph

Daily Weather History Graph

Search for Another Location

Airport:

Trip Planner

Search our weather history database for the weather conditions in past years. The results will help you decide how hot, cold, wet, or windy it might be!

Date:

Astronomy

May. 05, 2014 Rise Set
Actual Time 6:24 AM EDT 8:36 PM EDT
Civil Twilight 5:53 AM EDT 9:07 PM EDT
Nautical Twilight 5:16 AM EDT 9:45 PM EDT
Astronomical Twilight 4:34 AM EDT 10:27 PM EDT
Moon 11:43 AM EDT (5/5) 1:20 AM EDT (5/5)
Length of Visible Light 15h 13m
Length of Day
14h 12m
Waxing Crescent, 36% of the Moon is Illuminated
May 5
Waxing Crescent
May 6
First Quarter
May 14
Full
May 21
Last Quarter
May 28
New

Hourly Weather History & Observations

Time (EDT) Temp. Windchill Dew Point Humidity Pressure Visibility Wind Dir Wind Speed Gust Speed Precip Events Conditions
12:14 AM 39.2 °F - 30.2 °F 70% 30.07 in 10.0 mi Calm Calm - N/A   Clear
12:34 AM 42.8 °F - 32.0 °F 66% 30.07 in 10.0 mi Calm Calm - N/A   Clear
12:54 AM 39.2 °F - 33.8 °F 81% 30.07 in 10.0 mi Calm Calm - N/A   Clear
1:14 AM 42.8 °F - 32.0 °F 66% 30.07 in 10.0 mi Calm Calm - N/A   Clear
1:34 AM 41.0 °F - 32.0 °F 70% 30.07 in 10.0 mi Calm Calm - N/A   Clear
1:54 AM 41.0 °F - 33.8 °F 76% 30.07 in 10.0 mi Calm Calm - N/A   Clear
2:14 AM 41.0 °F - 35.6 °F 81% 30.07 in 10.0 mi Calm Calm - N/A   Clear
2:34 AM 39.2 °F - 35.6 °F 87% 30.06 in 10.0 mi Calm Calm - N/A   Clear
2:54 AM 39.2 °F - 37.4 °F 93% 30.06 in 10.0 mi Calm Calm - N/A   Clear
3:15 AM 39.2 °F - 37.4 °F 93% 30.05 in 10.0 mi Calm Calm - N/A   Clear
3:35 AM 39.2 °F - 37.4 °F 93% 30.04 in 10.0 mi Calm Calm - N/A   Clear
3:55 AM 39.2 °F - 37.4 °F 93% 30.04 in 10.0 mi Calm Calm - N/A   Clear
4:15 AM 39.2 °F - 37.4 °F 93% 30.03 in 10.0 mi Calm Calm - N/A   Clear
4:35 AM 39.2 °F 33.6 °F 37.4 °F 93% 30.04 in 10.0 mi North 8.1 mph - N/A   Clear
4:55 AM 42.8 °F 40.1 °F 37.4 °F 81% 30.04 in 10.0 mi NNE 4.6 mph - N/A   Clear
5:15 AM 42.8 °F 41.1 °F 35.6 °F 76% 30.05 in 10.0 mi NE 3.5 mph - N/A   Clear
5:35 AM 42.8 °F - 35.6 °F 76% 30.05 in 10.0 mi Calm Calm - N/A   Clear
5:56 AM 42.8 °F 40.1 °F 35.6 °F 76% 30.05 in 10.0 mi NE 4.6 mph - N/A   Clear
6:16 AM 42.8 °F 41.1 °F 35.6 °F 76% 30.06 in 10.0 mi ENE 3.5 mph - N/A   Clear
6:36 AM 41.0 °F 39.0 °F 35.6 °F 81% 30.06 in 10.0 mi ENE 3.5 mph - N/A   Clear
6:56 AM 42.8 °F - 37.4 °F 81% 30.07 in 10.0 mi Calm Calm - N/A   Clear
7:16 AM 44.6 °F 43.1 °F 39.2 °F 81% 30.07 in 10.0 mi East 3.5 mph - N/A   Clear
7:36 AM 44.6 °F 43.1 °F 39.2 °F 81% 30.06 in 10.0 mi East 3.5 mph - N/A   Clear
7:51 AM 46.4 °F 43.5 °F 41.0 °F 81% 30.06 in 10.0 mi East 5.8 mph - N/A   Clear
8:11 AM 48.2 °F - 42.8 °F 82% 30.05 in 10.0 mi East 8.1 mph - N/A   Clear
8:31 AM 48.2 °F - 42.8 °F 82% 30.04 in 10.0 mi East 9.2 mph - N/A   Clear
8:52 AM 50.0 °F - 42.8 °F 76% 30.03 in 10.0 mi East 12.7 mph - N/A   Clear
9:12 AM 48.2 °F - 42.8 °F 82% 30.04 in 10.0 mi ESE 10.4 mph - N/A   Scattered Clouds
9:32 AM 48.2 °F - 42.8 °F 82% 30.05 in 10.0 mi SE 8.1 mph - N/A   Mostly Cloudy
9:52 AM 48.2 °F - 41.0 °F 76% 30.06 in 10.0 mi ESE 10.4 mph - N/A   Scattered Clouds
10:12 AM 50.0 °F - 41.0 °F 71% 30.07 in 10.0 mi ESE 10.4 mph - N/A   Scattered Clouds
10:32 AM 50.0 °F - 39.2 °F 66% 30.07 in 10.0 mi East 10.4 mph - N/A   Scattered Clouds
10:52 AM 51.8 °F - 39.2 °F 62% 30.07 in 10.0 mi East 6.9 mph - N/A   Clear
11:12 AM 50.0 °F - 39.2 °F 66% 30.08 in 10.0 mi East 9.2 mph - N/A   Mostly Cloudy
11:32 AM 48.2 °F - 39.2 °F 71% 30.06 in 10.0 mi ESE 9.2 mph - N/A   Overcast
11:52 AM 48.2 °F - 39.2 °F 71% 30.06 in 10.0 mi ESE 9.2 mph - N/A   Overcast
12:13 PM 50.0 °F - 39.2 °F 66% 30.06 in 10.0 mi ESE 9.2 mph - N/A   Mostly Cloudy
12:33 PM 50.0 °F - 39.2 °F 66% 30.05 in 10.0 mi East 8.1 mph - N/A   Mostly Cloudy
12:53 PM 50.0 °F - 37.4 °F 62% 30.06 in 10.0 mi East 6.9 mph - N/A   Overcast
1:13 PM 50.0 °F - 37.4 °F 62% 30.06 in 10.0 mi ESE 4.6 mph - N/A   Overcast
1:33 PM 51.8 °F - 37.4 °F 58% 30.05 in 10.0 mi ENE 6.9 mph - N/A   Overcast
1:53 PM 51.8 °F - 37.4 °F 58% 30.04 in 10.0 mi East 6.9 mph - N/A   Overcast
2:13 PM 51.8 °F - 37.4 °F 58% 30.03 in 10.0 mi East 10.4 mph - N/A   Overcast
2:33 PM 51.8 °F - 37.4 °F 58% 30.01 in 10.0 mi ENE 8.1 mph - N/A   Overcast
2:53 PM 51.8 °F - 39.2 °F 62% 30.01 in 10.0 mi East 6.9 mph - N/A   Overcast
3:14 PM 50.0 °F - 37.4 °F 62% 30.01 in 10.0 mi ENE 11.5 mph - N/A   Mostly Cloudy
3:34 PM 48.2 °F - 37.4 °F 66% 30.00 in 10.0 mi East 9.2 mph - N/A   Mostly Cloudy
3:54 PM 48.2 °F - 35.6 °F 62% 30.00 in 10.0 mi East 8.1 mph - N/A   Overcast
4:14 PM 50.0 °F - 35.6 °F 58% 29.99 in 10.0 mi East 8.1 mph - N/A   Mostly Cloudy
4:34 PM 50.0 °F - 35.6 °F 58% 29.99 in 10.0 mi East 8.1 mph - N/A   Mostly Cloudy
4:54 PM 50.0 °F - 35.6 °F 58% 29.98 in 10.0 mi East 10.4 mph - N/A   Mostly Cloudy
5:14 PM 50.0 °F - 35.6 °F 58% 29.97 in 10.0 mi East 6.9 mph - N/A   Overcast
5:34 PM 50.0 °F - 35.6 °F 58% 29.97 in 10.0 mi East 8.1 mph - N/A   Overcast
5:54 PM 50.0 °F - 35.6 °F 58% 29.97 in 10.0 mi East 5.8 mph - N/A   Overcast
6:14 PM 50.0 °F - 35.6 °F 58% 29.97 in 10.0 mi ENE 6.9 mph - N/A   Overcast
6:35 PM 50.0 °F - 33.8 °F 54% 29.97 in 10.0 mi East 5.8 mph - N/A   Overcast
6:55 PM 51.8 °F - 35.6 °F 54% 29.96 in 10.0 mi ENE 4.6 mph - N/A   Overcast
7:15 PM 51.8 °F - 35.6 °F 54% 29.96 in 10.0 mi East 5.8 mph - N/A   Overcast
7:35 PM 51.8 °F - 35.6 °F 54% 29.97 in 10.0 mi NE 5.8 mph - N/A   Mostly Cloudy
7:55 PM 50.0 °F - 35.6 °F 58% 29.97 in 10.0 mi Calm Calm - N/A   Scattered Clouds
8:15 PM 48.2 °F - 35.6 °F 62% 29.97 in 10.0 mi Calm Calm - N/A   Clear
8:35 PM 48.2 °F - 35.6 °F 62% 29.97 in 10.0 mi Calm Calm - N/A   Clear
8:55 PM 48.2 °F - 35.6 °F 62% 29.97 in 10.0 mi Calm Calm - N/A   Clear
9:15 PM 44.6 °F - 35.6 °F 71% 29.97 in 10.0 mi Calm Calm - N/A   Clear
9:36 PM 44.6 °F - 37.4 °F 76% 29.97 in 10.0 mi Calm Calm - N/A   Clear
9:56 PM 44.6 °F - 37.4 °F 76% 29.97 in 10.0 mi Calm Calm - N/A   Clear
10:16 PM 42.8 °F - 37.4 °F 81% 29.98 in 10.0 mi Calm Calm - N/A   Clear
10:36 PM 42.8 °F - 37.4 °F 81% 29.98 in 10.0 mi Calm Calm - N/A   Clear
10:56 PM 41.0 °F - 37.4 °F 87% 29.98 in 10.0 mi Calm Calm - N/A   Clear
11:16 PM 39.2 °F - 37.4 °F 93% 29.98 in 10.0 mi Calm Calm - N/A   Clear
11:31 PM 39.2 °F - 37.4 °F 93% 29.97 in 10.0 mi Calm Calm - N/A   Clear
11:51 PM 37.4 °F - 35.6 °F 93% 29.97 in 10.0 mi Calm Calm - N/A   Clear